www.pogodaiklimat.ru

Погода и климат >> Архив погоды >> Великобритания >> База Chivenor


ПОГОДА на Базе Chivenor

  • Прогноз погоды на Базе Chivenor
  • Монитор погоды на Базе Chivenor

АРХИВ ПОГОДЫ на Базе Chivenor

Время (UTC), дата Ветер
(напр.,м/с)
 
Видим.   Явления Облачность Т
(С)
Тd
(С)
f
(%)
Тe
(С)
Тes
(С)
Комфортность P
(гПа)
Po
(гПа)
Тmin
(С)
Tmax
(С)
R
(мм)
R24
(мм)
S
(см)
07 9.09 В 6 3000 м сильн. дождь н/о +12.1 +11.0 93 +9 +9 1011.4 1010.7
08 9.09 ЮВ 5 50 км в посл. час дождь н/о +12.7 +11.8 94 +10 +10 1010.6 1009.9
09 9.09 Ю 6 50 км н/о +14.2 +12.4 89 +12 +12 1010.0 1009.3
10 9.09 ЮВ 2 6000 м сильн. ливневой дождь н/о +13.9 +12.5 91 +13 +13 1009.8 1009.1
11 9.09 В 5 6000 м в посл. час дождь н/о +14.1 +13.0 93 +12 +12 1009.1 1008.4
12 9.09 ЮВ 4 10 км в посл. час дождь н/о +14.8 +13.5 92 +13 +13 1008.6 1007.9 15
13 9.09 ЮВ 2 40 км в посл. час дождь н/о +14.7 +13.0 90 +15 +15 1008.5 1007.8
14 9.09 СВ 2 6000 м морось с дождем н/о +14.2 +12.8 91 +14 +14 1008.8 1008.1
15 9.09 СВ 1 19 км дождь н/о +14.5 +12.5 88 +16 +16 1008.9 1008.1
16 9.09 В 1 3300 м сильн. дождь н/о +14.2 +12.8 91 +14 +14 1009.0 1008.3
17 9.09 С 6 5000 м сильн. дождь н/о +13.5 +10.1 80 +11 +11 1009.7 1009.0
18 9.09 С 4 40 км дождь н/о +14.4 +12.4 88 +13 +13 1010.6 1009.9 +15.0 34
19 9.09 С 7 45 км слаб. морось с дождем н/о +14.4 +12.0 85 +12 +12 1011.9 1011.2
20 9.09 С 5 35 км в посл. час дождь н/о +14.6 +12.2 86 +13 +13 1012.9 1012.1
21 9.09 С 6 30 км н/о +14.6 +11.7 83 +13 +13 1013.7 1013.0
22 9.09 С 8 45 км н/о +14.7 +11.4 81 +13 +13 1014.6 1013.9
23 9.09 С 6 24 км н/о +14.4 +11.2 81 +13 +13 1015.2 1014.5
00 10.09 С 5 40 км н/о +14.1 +11.0 82 +12 +12 1015.6 1014.9 0.4
01 10.09 С 4 40 км н/о +14.4 +11.2 81 +13 +13 1016.4 1015.7
02 10.09 С 4 40 км н/о +14.3 +11.0 81 +13 +13 1017.0 1016.2
03 10.09 С 3 35 км н/о +14.2 +11.1 82 +13 +13 1017.4 1016.7
04 10.09 С 4 35 км н/о +14.2 +11.2 82 +13 +13 1017.6 1016.9
05 10.09 С 2 35 км н/о +14.1 +11.0 82 +14 +14 1018.3 1017.6
06 10.09 С 4 30 км н/о +14.3 +11.2 82 +13 +13 1019.2 1018.4 +14.0 0.4
07 10.09 С 4 35 км н/о +14.4 +11.2 81 +13 +13 1019.7 1019.0
08 10.09 С 4 30 км н/о +14.9 +11.1 78 +14 +14 1020.5 1019.8
09 10.09 С 5 25 км н/о +15.3 +10.3 72 +14 +14 1021.5 1020.8
10 10.09 С 6 30 км н/о +15.9 +10.6 71 +15 +15 1021.5 1020.8
11 10.09 С 5 45 км н/о +16.7 +9.0 60 +16 +16 1021.9 1021.2
12 10.09 СЗ 4 22 км н/о +17.0 +9.9 63 +17 +17 1022.1 1021.3
13 10.09 СЗ 5 35 км н/о +15.8 +9.0 64 +15 +15 1022.2 1021.5
14 10.09 СЗ 5 35 км н/о +16.4 +7.9 57 +16 +16 1022.6 1021.9
15 10.09 З 6 24 км н/о +16.1 +9.1 63 +15 +15 1022.6 1021.9
16 10.09 СЗ 7 30 км н/о +15.8 +9.0 64 +14 +14 1022.7 1022.0
17 10.09 З 6 45 км н/о +14.6 +7.9 64 +13 +13 1022.0 1021.2
18 10.09 З 5 30 км н/о +14.5 +8.2 66 +13 +13 1022.3 1021.5 +17.3
19 10.09 З 4 50 км н/о +14.0 +8.0 67 +13 +13 1022.2 1021.5
20 10.09 З 5 45 км н/о +14.2 +8.7 69 +13 +13 1022.5 1021.8
21 10.09 З 5 35 км н/о +14.7 +9.3 70 +13 +13 1022.3 1021.6
22 10.09 З 6 35 км н/о +15.0 +10.1 72 +13 +13 1022.0 1021.3
23 10.09 З 6 30 км н/о +15.1 +10.8 75 +13 +13 1022.1 1021.4
00 11.09 ЮЗ 4 28 км н/о +15.5 +11.7 78 +15 +15 1021.7 1021.0
01 11.09 ЮЗ 6 27 км н/о +15.5 +12.5 82 +14 +14 1021.3 1020.6
02 11.09 Ю 4 22 км в посл. час дождь н/о +14.4 +12.6 89 +13 +13 1020.8 1020.0
03 11.09 ЮЗ 4 10 км в посл. час дождь н/о +15.4 +14.3 93 +14 +14 1020.0 1019.3
04 11.09 ЮЗ 5 10 км в посл. час дождь н/о +16.0 +15.0 94 +15 +15 1019.4 1018.6
05 11.09 ЮЗ 8 11 км в посл. час морось н/о +16.5 +15.6 94 +15 +15 1019.4 1018.7
06 11.09 З 9 8000 м слаб. морось с дождем н/о +16.8 +15.9 94 +15 +15 1019.5 1018.8 +13.7 0.4
07 11.09 З 8 5000 м в посл. час дождь н/о +17.0 +16.1 94 +16 +16 1019.6 1018.9
08 11.09 З 8 5000 м в посл. час дождь н/о +17.3 +16.4 94 +16 +16 1020.1 1019.4
09 11.09 З 8
{13}
7000 м дым н/о +17.3 +16.0 92 +16 +16 1020.2 1019.5
10 11.09 З 9 1600 м в посл. час дождь н/о +17.1 +16.3 95 +16 +16 1020.6 1019.9
11 11.09 З 9 1700 м в посл. час дождь н/о +17.4 +16.7 96 +16 +16 1020.7 1020.0
12 11.09 З 9
{13}
2100 м дымка н/о +17.6 +16.9 96 +16 +16 1021.2 1020.5 2
13 11.09 З 9
{13}
7000 м дымка н/о +17.7 +16.9 95 +17 +17 1021.5 1020.8
14 11.09 З 8
{13}
20 км н/о +18.2 +17.0 93 +18 +18 1021.6 1020.9
15 11.09 З 8 2400 м дымка н/о +17.6 +16.8 95 +17 +17 1021.8 1021.1
16 11.09 З 8 16 км н/о +17.9 +16.3 90 +17 +17 1022.0 1021.3
17 11.09 З 9 19 км н/о +17.6 +16.0 90 +16 +16 1022.4 1021.7
18 11.09 З 7 40 км н/о +17.2 +15.1 87 +16 +16 1022.7 1022.0 +18.5 2
19 11.09 З 6 30 км н/о +16.6 +14.9 90 +16 +16 1023.6 1022.9
20 11.09 З 6 30 км н/о +16.4 +14.4 88 +15 +15 1024.3 1023.6
21 11.09 З 7 40 км н/о +16.2 +13.8 86 +15 +15 1024.5 1023.8
22 11.09 З 6 35 км н/о +16.4 +14.3 87 +15 +15 1024.8 1024.1
23 11.09 З 4 30 км н/о +16.5 +14.6 89 +16 +16 1025.1 1024.4
00 12.09 З 4 28 км н/о +16.4 +14.8 90 +16 +16 1025.1 1024.4
01 12.09 З 5 30 км н/о +16.8 +15.1 90 +16 +16 1025.5 1024.8
02 12.09 З 5 28 км н/о +17.0 +15.5 91 +16 +16 1025.5 1024.7
03 12.09 З 6 30 км н/о +16.9 +16.0 94 +16 +16 1025.5 1024.8
04 12.09 З 6 1900 м морось н/о +16.8 +16.1 96 +16 +16 1025.7 1025.0
05 12.09 З 7 4100 м в посл. час морось н/о +16.8 +16.2 96 +16 +16 1025.8 1025.1
06 12.09 З 5 2100 м дымка н/о +16.8 +16.3 97 +16 +16 1026.4 1025.7 +15.8 0.8
07 12.09 З 6 18 км в посл. час дождь н/о +16.8 +16.0 95 +16 +16 1026.9 1026.2
08 12.09 З 6 5000 м дым н/о +16.8 +15.8 94 +16 +16 1027.3 1026.6
09 12.09 З 6 27 км н/о +17.5 +16.1 91 +17 +17 1027.9 1027.2
10 12.09 ЮЗ 7 20 км н/о +17.8 +16.3 91 +17 +17 1028.4 1027.7
11 12.09 З 8 14 км н/о +18.7 +15.9 84 +19 +19 1028.4 1027.7
12 12.09 З 10
{13}
30 км н/о +19.3 +15.2 77 +20 +20 1028.3 1027.6 0.2
13 12.09 З 9
{13}
22 км н/о +20.2 +15.4 74 +22 +22 комфорт 1028.5 1027.8
14 12.09 З 9
{13}
21 км н/о +19.4 +15.2 77 +20 +20 1028.6 1027.9
15 12.09 З 10
{13}
20 км н/о +19.6 +14.2 71 +21 +21 комфорт 1028.5 1027.7
16 12.09 ЮЗ 9
{14}
18 км н/о +18.4 +15.1 81 +18 +18 1028.2 1027.5
17 12.09 ЮЗ 8
{13}
1900 м дым н/о +17.4 +16.1 92 +16 +16 1028.4 1027.7
18 12.09 З 7 3600 м дымка н/о +17.2 +16.3 94 +16 +16 1028.7 1027.9 +20.4 0.4
19 12.09 З 8 10 км дымка н/о +17.2 +16.4 95 +16 +16 1028.7 1028.0
20 12.09 З 7 6000 м в посл. час дождь н/о +17.2 +16.6 96 +16 +16 1029.3 1028.6
21 12.09 З 6 3200 м дымка н/о +17.1 +16.5 96 +16 +16 1029.7 1028.9
22 12.09 З 5 11 км в посл. час дождь н/о +16.8 +16.1 96 +16 +16 1029.9 1029.2
23 12.09 СЗ 3 8000 м в посл. час дождь н/о +16.6 +16.0 96 +16 +16 1030.2 1029.5
00 13.09 СЗ 3 45 км н/о +16.3 +15.2 93 +16 +16 1030.9 1030.2 0.6
01 13.09 С 2 50 км н/о +16.3 +14.4 89 +17 +17 1031.4 1030.7
02 13.09 С 2 50 км н/о +15.9 +13.3 85 +16 +16 1031.8 1031.1
03 13.09 С 4 45 км н/о +14.8 +11.6 81 +14 +14 1032.5 1031.8
04 13.09 С 5 50 км н/о +13.9 +11.2 84 +12 +12 1032.8 1032.1
05 13.09 СВ 5 50 км н/о +14.2 +10.2 77 +13 +13 1033.1 1032.4
06 13.09 ЮЗ 2 50 км н/о +13.1 +10.1 82 +13 +13 1033.9 1033.2 +13.1 0.6
07 13.09 В 2 50 км н/о +14.1 +11.9 87 +14 +14 1034.7 1034.0
08 13.09 В 3 40 км н/о +15.9 +11.2 74 +16 +16 1035.3 1034.6
09 13.09 В 3 40 км н/о +16.8 +10.9 68 +17 +17 1035.8 1035.1
10 13.09 В 5 40 км н/о +16.7 +8.9 60 +16 +16 1036.0 1035.2
11 13.09 В 4 23 км н/о +17.3 +8.8 57 +17 +17 1035.9 1035.2
12 13.09 СВ 3 45 км н/о +17.8 +8.6 55 +18 +18 1035.9 1035.2
13 13.09 СВ 3 18 км н/о +18.3 +8.6 53 +19 +19 1035.5 1034.8
14 13.09 СВ 3 30 км н/о +19.2 +7.2 46 +20 +20 1035.4 1034.6
15 13.09 СВ 5 40 км н/о +18.8 +5.5 42 +19 +19 1035.5 1034.7
16 13.09 СВ 5 30 км н/о +18.6 +9.4 55 +19 +19 1035.2 1034.4
17 13.09 СВ 4 40 км н/о +18.6 +9.1 54 +19 +19 1035.0 1034.2
18 13.09 СВ 3 45 км н/о +17.2 +9.6 61 +17 +17 1035.0 1034.3 +19.6
19 13.09 СВ 3 50 км н/о +15.2 +9.6 69 +15 +15 1035.5 1034.7
20 13.09 В 2 45 км н/о +13.3 +8.9 75 +13 +13 1036.0 1035.3
21 13.09 В 2 40 км н/о +13.0 +9.8 81 +12 +12 1035.8 1035.1
22 13.09 В 2 35 км н/о +11.5 +9.6 88 +10 +10 1035.4 1034.7
23 13.09 В 3 30 км н/о +10.8 +9.5 92 +9 +9 1035.2 1034.4
00 14.09 Ю 1 35 км н/о +10.0 +8.6 91 +10 +10 1035.5 1034.7
01 14.09 В 1 28 км н/о +9.6 +8.4 92 +9 +9 1035.4 1034.6
02 14.09 В 3 18 км н/о +8.0 +6.9 93 +5 +5 1035.0 1034.2
03 14.09 В 4 30 км н/о +8.7 +7.8 94 +6 +6 1034.3 1033.6
04 14.09 В 3 24 км н/о +7.9 +7.0 94 +5 +5 1034.3 1033.5
05 14.09 В 5 30 км н/о +8.5 +7.2 92 +5 +5 1034.1 1033.3
06 14.09 В 3 45 км н/о +9.2 +8.2 93 +7 +7 1034.1 1033.3 +7.7
07 14.09 В 3 30 км н/о +10.1 +8.6 90 +8 +8 1033.9 1033.2
08 14.09 В 3 45 км н/о +11.8 +9.8 88 +10 +10 1033.6 1032.9
09 14.09 ЮВ 4 19 км н/о +15.3 +11.9 80 +14 +14 1033.8 1033.1
10 14.09 ЮВ 5 45 км н/о +17.4 +11.3 67 +17 +17 1033.3 1032.6
11 14.09 ЮВ 4 30 км н/о +19.0 +11.4 61 +20 +20 1032.8 1032.0
12 14.09 ЮВ 3 35 км н/о +19.9 +10.6 55 +22 +22 комфорт 1032.2 1031.5
13 14.09 Ю 2 30 км н/о +20.7 +8.7 46 +23 +23 комфорт 1031.8 1031.1
14 14.09 ЮВ 2 29 км н/о +21.6 +6.2 37 +22 +22 комфорт 1031.1 1030.4
15 14.09 Ю 1 35 км н/о +21.4 +9.7 47 +23 +23 комфорт 1030.2 1029.5
16 14.09 С 3 25 км н/о +20.9 +10.5 51 +23 +23 комфорт 1029.6 1028.9
17 14.09 С 4 40 км н/о +20.1 +10.2 53 +22 +22 комфорт 1029.5 1028.8
18 14.09 С 3 40 км н/о +18.8 +10.0 57 +20 +20 1029.6 1028.9 +22.4
19 14.09 СЗ 1 50 км н/о +15.6 +9.9 69 +16 +16 1029.7 1028.9
20 14.09 С 1 30 км н/о +14.5 +10.4 76 +15 +15 1029.5 1028.8
21 14.09 В 2 45 км н/о +13.3 +10.7 84 +13 +13 1029.4 1028.6
22 14.09 В 3 29 км н/о +11.8 +9.4 85 +10 +10 1029.6 1028.9
23 14.09 В 3 19 км н/о +11.5 +10.0 90 +10 +10 1029.2 1028.5
00 15.09 В 3 50 км н/о +10.5 +9.2 92 +9 +9 1028.8 1028.0 0.2
01 15.09 В 3 11 км н/о +9.1 +7.6 90 +7 +7 1028.4 1027.7
02 15.09 В 2 12 км н/о +9.0 +7.9 93 +7 +7 1027.9 1027.2
03 15.09 В 3 14 км н/о +9.4 +8.4 93 +7 +7 1027.1 1026.4
04 15.09 В 3 11 км н/о +10.0 +9.1 94 +8 +8 1027.1 1026.4
05 15.09 В 2 15 км н/о +10.4 +9.4 94 +9 +9 1027.0 1026.3
06 15.09 В 2 13 км н/о +10.9 +9.9 94 +9 +9 1026.9 1026.2 +8.6
07 15.09 В 2 12 км н/о +11.6 +10.7 94 +10 +10 1027.1 1026.4
08 15.09 СВ 2 18 км н/о +14.0 +12.3 89 +13 +13 1027.1 1026.4
09 15.09 ЮЗ 1 29 км н/о +16.3 +12.7 79 +17 +17 1026.9 1026.2
10 15.09 СЗ 4 23 км н/о +17.2 +13.2 77 +17 +17 1027.3 1026.6
11 15.09 З 4 40 км н/о +17.6 +13.7 78 +17 +17 1026.9 1026.1
12 15.09 З 3 40 км н/о +17.3 +13.7 79 +17 +17 1026.8 1026.0
13 15.09 З 3 35 км н/о +17.7 +13.2 75 +18 +18 1026.2 1025.5
14 15.09 З 3 50 км н/о +18.7 +15.1 80 +20 +20 1025.9 1025.2
15 15.09 СЗ 4 25 км н/о +17.3 +14.1 81 +17 +17 1025.4 1024.7
16 15.09 З 4 45 км н/о +17.1 +14.6 85 +17 +17 1025.0 1024.2
17 15.09 СЗ 4 50 км н/о +16.5 +14.2 86 +16 +16 1024.9 1024.2
18 15.09 З 3 14 км н/о +16.5 +14.9 90 +16 +16 1024.6 1023.8 +19.2
19 15.09 З 5 35 км дым н/о +15.7 +14.5 93 +15 +15 1024.8 1024.1
20 15.09 З 4 35 км н/о +15.7 +14.1 90 +15 +15 1024.9 1024.2
21 15.09 З 3 1700 м дым н/о +15.4 +14.4 94 +15 +15 1024.9 1024.2
22 15.09 З 3 30 км в посл. час дождь н/о +15.3 +14.5 95 +15 +15 1024.8 1024.1
23 15.09 З 4 50 км н/о +15.0 +14.1 94 +14 +14 1024.8 1024.0
00 16.09 З 3 50 км н/о +14.9 +14.2 96 +14 +14 1024.6 1023.9 0.2
01 16.09 З 3 35 км н/о +15.2 +14.4 95 +14 +14 1024.3 1023.5
02 16.09 З 4 3600 м дымка н/о +15.2 +14.5 96 +14 +14 1023.9 1023.2
03 16.09 З 3 45 км в посл. час туман н/о +15.1 +14.5 96 +14 +14 1023.4 1022.7
04 16.09 З 4 5000 м дымка н/о +15.3 +14.7 96 +14 +14 1023.1 1022.4
05 16.09 З 4 40 км н/о +15.4 +14.9 97 +14 +14 1022.7 1022.0

 

Местоположение метеостанции База Chivenor (Великобритания): широта 51.08 долгота -4.15 высота над уровнем моря 6 м.

В архиве по умолчанию представлена погода на Базе Chivenor за последнюю неделю. Архивные данные за месяц целиком и за предыдущие месяцы, начиная с января 2011 года, Вы можете получить, выбрав интересующий диапазон дат из раскрывающегося списка и нажав кнопку "Ввод!".


*Определитесь, кто Вы:
робот инопланетянин человек

Внимание! Время в таблицах - всемирное. Для получения местного времени необходимо прибавить поправку, которая равна 0 ч.

Смотрите также архив погоды в соседних городах и на ближайших метеорологических станциях:

Погода в Лискомбе (Великобритания) (38 км)
Погода в Мамблсе (Великобритания) (56 км)
Погода в Сейнт Атан (Великобритания) (61 км)
Погода в Аэропорту Эксетер (Великобритания) (64 км)
Погода в Аэропорту Эксетер 2 (Великобритания) (64 км)
Погода в Данкесуэлле (Великобритания) (69 км)
Погода в Пембри Сэндс (Великобритания) (73 км)
Погода в Кардинхеме (Великобритания) (74 км)
Погода в Плимуте (Великобритания) (81 км)
Погода в Милфорд-Хейвен (Великобритания) (93 км)

Пояснения к столбцам:

Ветер - указаны скорость ветра в м/с - средняя за 10 мин, порывы в срок и между сроками (в фигурных скобках) и направление, откуда дует ветер: С - северный, СВ - северо-восточный, В - восточный, ЮВ - юго-восточный, Ю - южный, ЮЗ - юго-западный, З - западный, СЗ - северо-западный.
Видимость - горизонтальная дальность видимости в метрах или километрах. При видимости от 1 до 10 км при отсутствии осадков обычно наблюдается дымка, при ухудшении видимости до 1 км и менее - туман. В сухую погоду видимость может ухудшаться дымом, пылью или мглою.
Явления - указаны атмосферные явления, наблюдавшиеся в срок или в последний час перед сроком; фигурными скобками обозначены явления, наблюдавшиеся между сроками (за 1-3 часа до срока); квадратными скобками обозначены град или гололедные отложения с указанием их диаметра в мм.
Облачность - указаны через наклонную черту общая и нижняя облачность в баллах и высота нижней границы облаков в метрах; квадратными скобками обозначены формы облаков: Ci - перистые, Cs - перисто-слоистые, Cc - перисто-кучевые, Ac - высококучевые, As - высокослоистые, Sc - слоисто-кучевые, Ns - слоисто-дождевые, Cu - кучевые, Cb - кучево-дождевые. Подробнее классификацию облаков см. в Атласе облаков (PDF).
T - Температура воздуха - температура, измеренная на высоте 2 м над землей.
Td - Температура точки росы - температура, при понижении до которой содержащийся в воздухе водяной пар достигнет насыщения.
f - Относительная влажность воздуха - влажноcть воздуха, измеренная на высоте 2 м над землей.
Te - Эффективная температура - температура, которую ощущает одетый по сезону человек в тени. Характеристика душности погоды. При расчете учитывается влияние влажности воздуха и скорости ветра на теплоощущения человека.
Tes - Эффективная температура на солнце - температура, которую ощущает человек, с поправкой на солнечный нагрев. Характеристика знойности погоды. Зависит от высоты солнца над горизонтом, облачности и скорости ветра. Ночью, в пасмурную погоду, а также при ветре 12 м/с и более поправка равна нулю.
P - Атмосферное давление - приведенное к уровню моря атмосферное давление.
Po - Атмосферное давление - измеренное на уровне метеостанции атмосферное давление.
Tmin - Минимальная температура - минимум температуры воздуха на высоте 2 м над землей.
Tmax - Максимальная температура - максимум температуры воздуха на высоте 2 м над землей.
R - Количество осадков - Количество выпавших осадков за период времени, мм. При наведении курсора мыши на число - период времени, за который выпало указанное количество осадков.
R24 - Количество осадков - Количество выпавших осадков за 24 часа, мм.
S - Снежный покров - Высота снежного покрова, см. При наведении курсора мыши на число - состояние снежного покрова и степень покрытия местности в баллах.